Location: Ash Shall?l al Awwal
(24.0167°N, 32.8667°E)
Time: 19:53:58
(UTC+00:00)

Cosmos 2242 Rocket - Pass Details

Date: 02 March 2021
Orbit: 617 x 652 km, 82.5° (Epoch: 09 April)

Event Time Altitude Azimuth Distance (km) Brightness Sun altitude
Rises 17:12:03 0° 3° (N) 2,930 7.0 -19.1°
Reaches altitude 10° 17:14:23 10° 10° (N) 2,013 6.1 -19.6°
Enters shadow 17:17:19 34° 38° (NE) 1,037 4.4 -20.3°
